When you browse on this site, cookies collect data to enhance your experience and personalize the content and advertising you see.
Visit our Privacy Policy to learn more. By continuing to use the site, you agree to this use of cookies and data.
  • In Austria
  • List of Countries
  • For 7 days
  • Water Temperature
  • Satellite Maps
  • Weather Map
  • News
  • Weather Widgets
  • user-avatar
    Login

    Hourly Weather Bregenz

    Today, 20 July, Saturday

    Time Temperature Precipitation Wind Pressure Humidity
    00:00 +12°C° 0 mm 1 mps 648 mmHg 88%
    01:00 +12°C° 0 mm 1 mps 648 mmHg 88%
    02:00 +12°C° 0 mm 1 mps 648 mmHg 88%
    03:00 +12°C° 0 mm 2 mps 648 mmHg 87%
    04:00 +12°C° 0 mm 2 mps 648 mmHg 86%
    05:00 +13°C° 0 mm 2 mps 648 mmHg 84%
    06:00 +14°C° 0 mm 2 mps 649 mmHg 81%
    07:00 +15°C° 0 mm 1 mps 649 mmHg 78%
    08:00 +19°C° 0 mm 1 mps 650 mmHg 70%
    09:00 +21°C° 0 mm 1 mps 650 mmHg 62%
    10:00 +23°C° 0 mm 1 mps 651 mmHg 54%
    11:00 +24°C° 0.1 mm 1 mps 651 mmHg 52%
    12:00 +25°C° 0.1 mm 1 mps 651 mmHg 50%
    13:00 +25°C° 0.1 mm 1 mps 652 mmHg 48%
    14:00 +25°C° 0.3 mm 1 mps 651 mmHg 53%
    15:00 +24°C° 0.3 mm 1 mps 651 mmHg 58%
    16:00 +23°C° 0.3 mm 1 mps 651 mmHg 63%
    17:00 +22°C° 0.4 mm 1 mps 651 mmHg 68%
    18:00 +21°C° 0.4 mm 1 mps 651 mmHg 73%
    19:00 +20°C° 0.4 mm 1 mps 651 mmHg 77%
    20:00 +19°C° 0.1 mm 1 mps 651 mmHg 79%
    21:00 +16°C° 0.1 mm 1 mps 651 mmHg 80%
    22:00 +15°C° 0.1 mm 2 mps 650 mmHg 81%
    23:00 +14°C° 1 mm 1 mps 651 mmHg 85%

    Tomorrow, 21 July, Sunday

    Time Temperature Precipitation Wind Pressure Humidity
    00:00 +14°C° 1 mm 1 mps 651 mmHg 88%
    01:00 +13°C° 1 mm 1 mps 651 mmHg 92%
    02:00 +13°C° 0.6 mm 1 mps 650 mmHg 92%
    03:00 +13°C° 0.6 mm 1 mps 650 mmHg 93%
    04:00 +13°C° 0.6 mm 1 mps 650 mmHg 93%
    05:00 +13°C° 0.8 mm 1 mps 650 mmHg 92%
    06:00 +14°C° 0.8 mm 1 mps 651 mmHg 92%
    07:00 +15°C° 0.8 mm 1 mps 651 mmHg 91%
    08:00 +16°C° 0.8 mm 1 mps 652 mmHg 89%
    09:00 +18°C° 0.8 mm 1 mps 652 mmHg 87%
    10:00 +19°C° 0.8 mm 1 mps 653 mmHg 85%
    11:00 +20°C° 0.7 mm 1 mps 653 mmHg 82%
    12:00 +20°C° 0.7 mm 1 mps 653 mmHg 78%
    13:00 +20°C° 0.7 mm 2 mps 653 mmHg 74%
    14:00 +21°C° 0.5 mm 1 mps 653 mmHg 75%
    15:00 +21°C° 0.5 mm 1 mps 654 mmHg 76%
    16:00 +21°C° 0.5 mm 1 mps 654 mmHg 76%
    17:00 +20°C° 0.3 mm 1 mps 654 mmHg 80%
    18:00 +19°C° 0.3 mm 1 mps 653 mmHg 84%
    19:00 +19°C° 0.3 mm 1 mps 653 mmHg 87%
    20:00 +16°C° 0 mm 1 mps 653 mmHg 88%
    21:00 +15°C° 0 mm 1 mps 653 mmHg 89%
    22:00 +14°C° 0 mm 1 mps 653 mmHg 89%
    23:00 +13°C° 0 mm 1 mps 653 mmHg 90%

    Day after tomorrow, 22 July, Monday

    Time Temperature Precipitation Wind Pressure Humidity
    00:00 +13°C° 0 mm 1 mps 653 mmHg 90%
    01:00 +13°C° 0 mm 1 mps 653 mmHg 91%
    02:00 +12°C° 0 mm 1 mps 653 mmHg 91%
    03:00 +12°C° 0 mm 1 mps 653 mmHg 91%
    04:00 +12°C° 0 mm 1 mps 653 mmHg 92%
    05:00 +13°C° 0 mm 1 mps 653 mmHg 90%
    06:00 +14°C° 0 mm 1 mps 653 mmHg 89%
    07:00 +14°C° 0 mm 0 mps 654 mmHg 87%
    08:00 +18°C° 0 mm 1 mps 654 mmHg 80%
    09:00 +20°C° 0 mm 1 mps 655 mmHg 72%
    10:00 +22°C° 0 mm 1 mps 656 mmHg 64%
    11:00 +22°C° 0 mm 1 mps 656 mmHg 62%
    12:00 +23°C° 0 mm 1 mps 656 mmHg 59%
    13:00 +24°C° 0 mm 2 mps 655 mmHg 56%
    14:00 +24°C° 0 mm 2 mps 655 mmHg 57%
    15:00 +24°C° 0 mm 2 mps 655 mmHg 58%
    16:00 +24°C° 0 mm 2 mps 655 mmHg 59%
    17:00 +23°C° 0 mm 2 mps 655 mmHg 67%
    18:00 +21°C° 0 mm 1 mps 654 mmHg 74%
    19:00 +20°C° 0 mm 1 mps 654 mmHg 82%
    20:00 +18°C° 0 mm 1 mps 654 mmHg 86%
    21:00 +16°C° 0 mm 1 mps 653 mmHg 89%
    22:00 +15°C° 0 mm 1 mps 653 mmHg 92%
    23:00 +14°C° 0 mm 1 mps 653 mmHg 92%

    23 July, Tuesday

    Time Temperature Precipitation Wind Pressure Humidity
    00:00 +14°C° 0 mm 1 mps 653 mmHg 92%
    01:00 +14°C° 0 mm 1 mps 653 mmHg 93%
    02:00 +14°C° 0 mm 1 mps 652 mmHg 93%
    03:00 +13°C° 0 mm 1 mps 652 mmHg 93%
    04:00 +13°C° 0 mm 1 mps 652 mmHg 93%
    05:00 +14°C° 0 mm 1 mps 652 mmHg 90%
    06:00 +15°C° 0 mm 1 mps 652 mmHg 87%
    07:00 +16°C° 0 mm 1 mps 653 mmHg 83%
    08:00 +19°C° 0 mm 1 mps 653 mmHg 76%
    09:00 +21°C° 0 mm 1 mps 653 mmHg 70%
    10:00 +23°C° 0 mm 1 mps 654 mmHg 63%
    11:00 +24°C° 0 mm 1 mps 654 mmHg 60%
    12:00 +25°C° 0 mm 1 mps 654 mmHg 56%
    13:00 +26°C° 0 mm 2 mps 654 mmHg 53%
    14:00 +26°C° 0 mm 2 mps 654 mmHg 54%
    15:00 +26°C° 0 mm 2 mps 653 mmHg 54%
    16:00 +26°C° 0 mm 2 mps 653 mmHg 54%
    17:00 +24°C° 0 mm 1 mps 653 mmHg 62%
    18:00 +23°C° 0 mm 1 mps 652 mmHg 71%
    19:00 +21°C° 0 mm 1 mps 652 mmHg 79%
    20:00 +20°C° 0 mm 1 mps 652 mmHg 82%
    21:00 +19°C° 0 mm 1 mps 651 mmHg 84%
    22:00 +16°C° 0 mm 1 mps 651 mmHg 87%
    23:00 +16°C° 0 mm 1 mps 651 mmHg 87%

    24 July, Wednesday

    Time Temperature Precipitation Wind Pressure Humidity
    00:00 +16°C° 0 mm 1 mps 651 mmHg 87%
    01:00 +15°C° 0 mm 1 mps 651 mmHg 87%
    02:00 +15°C° 0 mm 1 mps 650 mmHg 87%
    03:00 +15°C° 0 mm 1 mps 650 mmHg 88%
    04:00 +15°C° 0 mm 1 mps 650 mmHg 88%
    05:00 +16°C° 0 mm 1 mps 650 mmHg 86%
    06:00 +18°C° 0 mm 1 mps 651 mmHg 84%
    07:00 +19°C° 0 mm 1 mps 651 mmHg 81%
    08:00 +21°C° 0 mm 1 mps 652 mmHg 75%
    09:00 +23°C° 0 mm 1 mps 652 mmHg 68%
    10:00 +24°C° 0 mm 1 mps 653 mmHg 62%
    11:00 +25°C° 0 mm 1 mps 653 mmHg 59%
    12:00 +26°C° 0 mm 1 mps 653 mmHg 56%
    13:00 +26°C° 0 mm 2 mps 653 mmHg 53%
    14:00 +26°C° 0 mm 2 mps 652 mmHg 53%
    15:00 +26°C° 0 mm 2 mps 652 mmHg 54%
    16:00 +26°C° 0 mm 2 mps 652 mmHg 54%
    17:00 +25°C° 0.1 mm 1 mps 652 mmHg 61%
    18:00 +23°C° 0.1 mm 1 mps 651 mmHg 69%
    19:00 +20°C° 0.1 mm 0 mps 651 mmHg 76%
    20:00 +21°C° 0 mm 1 mps 651 mmHg 78%
    21:00 +20°C° 0 mm 1 mps 651 mmHg 79%
    22:00 +19°C° 0 mm 1 mps 651 mmHg 80%
    23:00 +18°C° 0 mm 1 mps 651 mmHg 80%

    25 July, Thursday

    Time Temperature Precipitation Wind Pressure Humidity
    00:00 +18°C° 0 mm 1 mps 650 mmHg 81%
    01:00 +16°C° 0 mm 1 mps 650 mmHg 81%
    02:00 +16°C° 0 mm 1 mps 650 mmHg 82%
    03:00 +16°C° 0 mm 1 mps 650 mmHg 82%
    04:00 +15°C° 0 mm 1 mps 649 mmHg 83%
    05:00 +16°C° 0 mm 1 mps 650 mmHg 81%
    06:00 +18°C° 0 mm 1 mps 650 mmHg 80%
    07:00 +19°C° 0 mm 1 mps 650 mmHg 78%
    08:00 +21°C° 0 mm 1 mps 651 mmHg 72%
    09:00 +23°C° 0 mm 1 mps 652 mmHg 65%
    10:00 +25°C° 0 mm 1 mps 652 mmHg 59%
    11:00 +26°C° 0 mm 1 mps 652 mmHg 57%
    12:00 +27°C° 0 mm 1 mps 652 mmHg 55%
    13:00 +27°C° 0 mm 2 mps 652 mmHg 53%
    14:00 +27°C° 0.4 mm 1 mps 652 mmHg 54%
    15:00 +27°C° 0.4 mm 1 mps 652 mmHg 55%
    16:00 +27°C° 0.4 mm 1 mps 652 mmHg 57%
    17:00 +26°C° 0.3 mm 1 mps 651 mmHg 64%
    18:00 +24°C° 0.3 mm 1 mps 651 mmHg 71%
    19:00 +21°C° 0.3 mm 0 mps 650 mmHg 79%
    20:00 +22°C° 0 mm 1 mps 650 mmHg 81%
    21:00 +21°C° 0 mm 1 mps 650 mmHg 82%
    22:00 +19°C° 0 mm 1 mps 650 mmHg 84%
    23:00 +18°C° 0.1 mm 2 mps 650 mmHg 84%
    Show more